Location: Antist
(43.1184°N, 0.1270°E)
Time: 12:58:53
(UTC+00:00)

Cosmos 1300 - Pass Details

Date: 19 January 2020
Orbit: 511 x 515 km, 82.5° (Epoch: 20 February)

Event Time Altitude Azimuth Distance (km) Brightness Sun altitude
Rises 18:16:31 0° 346° (NNW) 2,638 6.3 -14.9°
Reaches altitude 10° 18:18:41 10° 342° (NNW) 1,745 5.4 -15.2°
Maximum altitude 18:22:25 52° 266° (W) 646 3.6 -15.9°
Drops below altitude 10° 18:26:06 10° 189° (S) 1,728 5.6 -16.6°
Sets 18:28:14 0° 185° (S) 2,609 6.5 -16.9°
